This demonstration page uses our WeatherBlox Daily Observations layout. Learn more.

41.86663, -103.66717

Hourly Observations for October 28, 2020

Temp ( °F °C ) Dew Point ( °F °C ) Humidity (%) Winds ( mph kmh ) Pressure ( in mb ) Visibility ( mi km ) Precip ( " mm )
12:53 am 00:53 Clear 24 -4.4 18 -7.8 77 77 WNW 13 20 30.18 1022 10 16.0934 0 0
1:53 am 01:53 Clear 22 -5.6 18 -7.8 85 85 WNW 7 11 30.17 1022 10 16.0934 0 0
2:53 am 02:53 Clear 22 -5.6 18 -7.8 85 85 NW 8 13 30.14 1021 10 16.0934 0 0
3:53 am 03:53 Clear 20 -6.7 16 -8.9 85 85 NW 10 17 30.1 1019 10 16.0934 0 0
4:53 am 04:53 Clear 20 -6.7 16 -8.9 85 85 NW 9 15 30.12 1020 10 16.0934 0 0
5:53 am 05:53 Clear 20 -6.7 16 -8.9 85 85 NW 7 11 30.15 1021 10 16.0934 0 0
6:53 am 06:53 Clear 26 -3.3 20 -6.7 78 78 NNW 13 20 30.15 1021 10 16.0934 0 0
7:53 am 07:53 Sunny 22 -5.6 17 -8.3 82 82 NNW 3 6 30.19 1022 10 16.0934 0 0
8:53 am 08:53 Sunny 25 -3.9 19 -7.2 78 78 NNW 5 7 30.22 1023 10 16.0934 0 0
9:53 am 09:53 Sunny 30 -1.1 23 -5 75 75 NW 8 13 30.22 1023 10 16.0934 0 0
10:53 am 10:53 Sunny 36 2.2 27 -2.8 70 70 NW 8 13 30.21 1023 10 16.0934 0 0
11:53 am 11:53 Sunny 38 3.3 28 -2.2 68 68 WNW 12 19 30.2 1023 10 16.0934 0 0
12:53 pm 12:53 Sunny 41 5 29 -1.7 62 62 WNW 9 15 30.19 1022 10 16.0934 0 0
1:53 pm 13:53 Sunny 41 5 30 -1.1 65 65 WNW 15 24 30.16 1021 10 16.0934 0 0
2:53 pm 14:53 Sunny 42 5.6 32 0 68 68 W 8 13 30.16 1022 10 16.0934 0 0
3:53 pm 15:53 Sunny 44 6.7 32 0 63 63 W 9 15 30.18 1022 10 16.0934 0 0
4:53 pm 16:53 Sunny 43 6.1 33 0.6 68 68 WNW 12 19 30.18 1022 10 16.0934 0 0
5:53 pm 17:53 Sunny 40 4.4 32 0 73 73 NNW 14 22 30.2 1023 10 16.0934 0 0
6:53 pm 18:53 Clear 38 3.3 32 0 79 79 ENE 5 7 30.22 1023 10 16.0934 0 0
7:53 pm 19:53 Clear 40 4.4 32 0 73 73 VRB 3 6 30.24 1024 10 16.0934 0 0
8:53 pm 20:53 Cloudy 37 2.8 32 0 82 82 WSW 5 7 30.25 1024 10 16.0934 0 0
9:53 pm 21:53 Cloudy 37 2.8 33 0.6 86 86 Calm 30.26 1025 10 16.0934 0 0
10:53 pm 22:53 Cloudy 37 2.8 33 0.6 86 86 WNW 5 7 30.24 1024 10 16.0934 0 0
11:53 pm 23:53 Cloudy 37 2.8 33 0.6 86 86 NNW 5 7 30.23 1024 10 16.0934 0 0

Powered by AerisWeather